{"data":{"norad_id":61730,"intl_designator":"2024-197A","name":"COSMOS 2579","alt_names":[],"object_type":"PAYLOAD","status":"ACTIVE","operator":null,"country":"CIS","launch_date":"2024-10-31","launch_site_code":"PLMSC","launch_vehicle":null,"mission":null,"orbit_class":"UNKNOWN","rcs_meters":null,"size_class":null,"mass_kg":null,"dimensions":null,"purposes":[],"wikipedia_slug":null,"has_3d_model":false,"image_url":null,"decayed_at":null,"tle_current":{"epoch":"2026-09-22T23:02:40.038432Z","epoch_age_seconds":87482,"freshness":"FRESH","line1":"1 61730U 24197A   26265.96018563  .00002592  00000+0  10547-3 0  9996","line2":"2 61730  97.5568 190.8837 0002907  69.2003 290.9546 15.25449528105379","mean_motion":15.25449528,"eccentricity":0.0002907,"inclination_deg":97.5568,"raan_deg":190.8837,"arg_perigee_deg":69.2003,"mean_anomaly_deg":290.9546,"bstar":0.00010547,"rev_number":10537,"period_min":94.398403458682,"perigee_km":487.43951570135,"apogee_km":491.43232259654,"semimajor_km":6867.5729191489,"source":"CELESTRAK","updated_at":"2026-09-23T09:00:21.021742Z"}}}